This is the latest recevied weather packets stored in our database for station/object KD2SIG. If no packets are shown the sender has not sent any weather packets the latest 10 day(s).
| Time | Temp. | Humidity | Pressure | Rain* | Wind** | Luminosity | Snow |
|---|---|---|---|---|---|---|---|
| 1777909936 | 16.11° C | 55% | 1006.8 hPa | 0 mm | - | 690 W/m² | - |
| 1777909633 | 16.67° C | 56% | 1007.1 hPa | 0 mm | - | 686 W/m² | - |
| 1777909331 | 16.67° C | 56% | 1007.1 hPa | 0 mm | - | 684 W/m² | - |
| 1777909028 | 16.67° C | 55% | 1007.2 hPa | 0 mm | - | 705 W/m² | - |
| 1777908726 | 16.11° C | 58% | 1007.3 hPa | 0 mm | - | 711 W/m² | - |
| 1777908423 | 16.67° C | 58% | 1006.9 hPa | 0 mm | - | 698 W/m² | - |
| 1777908119 | 16.67° C | 56% | 1007.3 hPa | 0 mm | - | 724 W/m² | - |
| 1777907815 | 16.11° C | 57% | 1007.3 hPa | 0 mm | - | 705 W/m² | - |
| 1777907510 | 15.56° C | 58% | 1007.3 hPa | 0 mm | - | 721 W/m² | - |
| 1777907207 | 15.56° C | 56% | 1007.3 hPa | 0 mm | - | 738 W/m² | - |
| 1777906904 | 15.56° C | 57% | 1007.1 hPa | 0 mm | - | 677 W/m² | - |
| 1777906602 | 15.56° C | 59% | 1007.4 hPa | 0 mm | - | 711 W/m² | - |
| 1777906297 | 15.56° C | 60% | 1006.9 hPa | 0 mm | - | 587 W/m² | - |
| 1777905994 | 15.56° C | 60% | 1007.1 hPa | 0 mm | - | 703 W/m² | - |
| 1777905691 | 15° C | 60% | 1007.1 hPa | 0 mm | - | 726 W/m² | - |
| 1777905387 | 15° C | 61% | 1007.3 hPa | 0 mm | - | 699 W/m² | - |
| 1777905085 | 15° C | 62% | 1007.1 hPa | 0 mm | - | 639 W/m² | - |
| 1777904782 | 15° C | 61% | 1007.3 hPa | 0 mm | - | 538 W/m² | - |
| 1777904480 | 14.44° C | 64% | 1006.9 hPa | 0 mm | - | 736 W/m² | - |
| 1777904176 | 14.44° C | 62% | 1007.3 hPa | 0 mm | - | 380 W/m² | - |
| 1777903873 | 14.44° C | 66% | 1007.2 hPa | 0 mm | - | 657 W/m² | - |
| 1777903570 | 13.89° C | 67% | 1007.3 hPa | 0 mm | - | 684 W/m² | - |
| 1777903265 | 13.33° C | 68% | 1007.4 hPa | 0 mm | - | 652 W/m² | - |
| 1777902963 | 13.33° C | 68% | 1007.2 hPa | 0 mm | - | 658 W/m² | - |
| 1777902659 | 12.78° C | 72% | 1007.3 hPa | 0 mm | - | 638 W/m² | - |
* Rain latest hour (hover to see other rain measurements)
** Current wind speed in m/s (hover to see current wind gust speed)